Location: Lhota
(50.0887°N, 14.0116°E)
Time: 01:12:57
(UTC+00:00)

ATLAS 3B R/B - Pass Details

Date: 19 May 2025
Orbit: 935 x 1258 km, 63.8° (Epoch: 23 June)

Event Time Altitude Azimuth Distance (km) Brightness Sun altitude
Exits shadow 21:30:09 25° 160° (SSE) 2,176 3.7 -17.1°
Maximum altitude 21:33:31 37° 114° (ESE) 1,788 3.5 -17.3°
Drops below altitude 10° 21:40:27 10° 52° (NE) 3,222 5.4 -17.7°
Sets 21:43:31 0° 44° (NE) 4,210 6.2 -17.9°
